Yoho Park, British Columbia

7:40 AM MDT on July 21, 2017 (GMT -0600)
Yoho Park

Weather History for CWYL - October, 2012

Change the Weather History Date:

Friday, October 19, 2012

  Actual Average Record
Temperature  
Mean Temperature 32 °F -  
Max Temperature 35 °F - - ()
Min Temperature 29 °F - - ()
Degree Days  
Heating Degree Days 33    
Moisture  
Dew Point 32 °F    
Average Humidity 97    
Maximum Humidity 100    
Minimum Humidity 92    
Precipitation  
Precipitation 0.00 in - - ()
Sea Level Pressure  
Sea Level Pressure 29.71 in    
Wind  
Wind Speed 10 mph ()    
Max Wind Speed 20 mph    
Max Gust Speed -    
T = Trace of Precipitation, MM = Missing Value Source: Averaged Metar Reports

Daily Weather History Graph

Daily Weather History Graph

Search for Another Location

Airport or City:

Trip Planner

Search our weather history database for the weather conditions in past years. The results will help you decide how hot, cold, wet, or windy it might be!

Date:

Astronomy

Oct. 19, 2012 Rise Set
Actual Time 8:17 AM MDT 6:42 PM MDT
Civil Twilight 7:43 AM MDT 7:16 PM MDT
Nautical Twilight 7:04 AM MDT 7:54 PM MDT
Astronomical Twilight 6:25 AM MDT 8:33 PM MDT
Moon 1:29 PM MDT (10/19) 10:01 PM MDT (10/19)
Length of Visible Light 11h 33m
Length of Day
10h 25m
Waxing Crescent, 24% of the Moon is Illuminated
Oct 19
Waxing Crescent
Oct 21
First Quarter
Oct 29
Full
Nov 6
Last Quarter
Nov 13
New

Hourly Weather History & Observations

Time (MDT) Temp. Windchill Dew Point Humidity Pressure Visibility Wind Dir Wind Speed Gust Speed Precip Events Conditions
12:00 AM 29 °F - 29 °F 98% 29.94 in - SW 3.5 mph - -  
12:00 AM 29.3 °F 25.6 °F 28.6 °F 97% 29.94 in - SW 3.5 mph - N/A   Unknown
1:00 AM 29.7 °F 21.3 °F 28.9 °F 97% 29.91 in - WSW 9.2 mph - N/A   Unknown
2:00 AM 30.0 °F 23.2 °F 29.3 °F 97% 29.87 in - WSW 6.9 mph - N/A   Unknown
3:00 AM 31.1 °F 20.1 °F 30.4 °F 97% 29.83 in - West 16.1 mph - N/A   Unknown
4:00 AM 31.3 °F 20.3 °F 30.6 °F 97% 29.81 in - West 16.1 mph - N/A   Unknown
5:00 AM 31.6 °F 20.7 °F 30.9 °F 97% 29.81 in - WSW 16.1 mph - N/A   Unknown
6:00 AM 32 °F - 31 °F 95% 29.81 in - West 18.4 mph - -  
6:00 AM 31.6 °F 20.0 °F 31.1 °F 98% 29.81 in - West 18.4 mph - N/A   Unknown
7:00 AM 31.8 °F 20.2 °F 31.3 °F 98% 29.76 in - West 18.4 mph - N/A   Unknown
8:00 AM 31.8 °F 22.8 °F 31.3 °F 98% 29.73 in - West 11.5 mph - N/A   Unknown
9:00 AM 31.8 °F 19.9 °F 31.3 °F 98% 29.72 in - West 19.6 mph - N/A   Unknown
10:00 AM 31.8 °F 21.4 °F 31.6 °F 99% 29.71 in - West 15.0 mph - N/A   Unknown
11:00 AM 31.6 °F 22.1 °F 31.8 °F 100% 29.70 in - West 12.7 mph - N/A   Unknown
12:00 PM 32 °F - 32 °F 99% 29.69 in - West 12.7 mph - -  
12:00 PM 31.6 °F 22.1 °F 31.8 °F 100% 29.69 in - West 12.7 mph - N/A   Unknown
1:00 PM 33.4 °F 22.7 °F 32.9 °F 98% 29.69 in - West 17.3 mph - N/A   Unknown
2:00 PM 34.0 °F 23.0 °F 33.4 °F 98% 29.68 in - West 18.4 mph - N/A   Unknown
3:00 PM 35.1 °F 25.5 °F 34.5 °F 98% 29.66 in - West 15.0 mph - N/A   Unknown
4:00 PM 34.7 °F 25.9 °F 34.2 °F 98% 29.64 in - West 12.7 mph - N/A   Unknown
5:00 PM 34.7 °F 26.4 °F 34.2 °F 98% 29.63 in - West 11.5 mph - N/A   Unknown
6:00 PM 34 °F - 34 °F 98% 29.62 in - West 13.8 mph - -  
6:00 PM 34.2 °F 24.8 °F 33.6 °F 98% 29.62 in - West 13.8 mph - N/A   Unknown
7:00 PM 33.6 °F 26.2 °F 33.1 °F 98% 29.58 in - West 9.2 mph - N/A   Unknown
8:00 PM 33.6 °F 26.2 °F 33.1 °F 98% 29.57 in - West 9.2 mph - N/A   Unknown
9:00 PM 33.3 °F 26.4 °F 31.3 °F 92% 29.54 in - West 8.1 mph - N/A   Unknown
10:00 PM 33.3 °F 24.6 °F 31.3 °F 92% 29.53 in - WSW 11.5 mph - N/A   Unknown
11:00 PM 33.3 °F 27.9 °F 31.3 °F 92% 29.52 in - SW 5.8 mph - N/A   Unknown